CZN841 YBBN-YCFS

Flight info

Callsign CZN841
Flight time N/A
Altitude 19000
Route BN H91 HUUGO W760 IDNER W214 CFS
Aircraft A320/M-SDE3FGHIRWY/LB1

Departure

Time 2026-05-04 00:41
Airport Brisbane International Airport (YBBN)

Arrival

Time N/A
Airport Coffs Harbour Airport (YCFS)
Time Latitude Longitude Altitude Speed Heading
2026-05-04 00:23 -27.38557 153.12236 22 ft 0 kts 240°
2026-05-04 00:34 -27.38548 153.12253 21 ft 2 kts 240°
2026-05-04 00:34 -27.38542 153.12273 23 ft 4 kts 249°
2026-05-04 00:35 -27.38531 153.12294 26 ft 4 kts 218°
2026-05-04 00:35 -27.38510 153.12301 24 ft 4 kts 165°
2026-05-04 00:35 -27.38495 153.12284 24 ft 4 kts 116°
2026-05-04 00:35 -27.38499 153.12292 23 ft 4 kts 117°
2026-05-04 00:36 -27.38510 153.12316 21 ft 1 kts 117°
2026-05-04 00:37 -27.38510 153.12318 21 ft 2 kts 112°
2026-05-04 00:38 -27.38487 153.12355 22 ft 13 kts 40°
2026-05-04 00:38 -27.38460 153.12448 21 ft 13 kts 103°
2026-05-04 00:38 -27.38409 153.12527 22 ft 15 kts 27°
2026-05-04 00:38 -27.38311 153.12584 22 ft 17 kts 30°
2026-05-04 00:39 -27.38198 153.12647 23 ft 19 kts 27°
2026-05-04 00:39 -27.38070 153.12721 21 ft 22 kts 27°
2026-05-04 00:39 -27.38006 153.12847 24 ft 22 kts 118°
2026-05-04 00:39 -27.38075 153.12997 21 ft 17 kts 118°
2026-05-04 00:40 -27.38150 153.13039 22 ft 1 kts 205°
2026-05-04 00:40 -27.38203 153.13010 23 ft 35 kts 206°
2026-05-04 00:40 -27.38639 153.12764 22 ft 103 kts 207°
2026-05-04 00:40 -27.39445 153.12302 22 ft 154 kts 207°
2026-05-04 00:41 -27.40508 153.11718 256 ft 177 kts 201°
2026-05-04 00:41 -27.41615 153.11125 934 ft 175 kts 205°
2026-05-04 00:41 -27.42767 153.10796 1611 ft 172 kts 169°
2026-05-04 00:41 -27.43895 153.11319 2053 ft 186 kts 150°
2026-05-04 00:42 -27.45088 153.12075 2345 ft 209 kts 149°
2026-05-04 00:42 -27.46421 153.12920 2805 ft 226 kts 149°
2026-05-04 00:42 -27.47801 153.13785 3678 ft 228 kts 149°
2026-05-04 00:42 -27.49237 153.14583 4485 ft 234 kts 161°
2026-05-04 00:43 -27.50901 153.14711 5094 ft 254 kts 187°
2026-05-04 00:43 -27.52708 153.14283 5608 ft 273 kts 191°
2026-05-04 00:43 -27.54591 153.13798 6406 ft 280 kts 192°
2026-05-04 00:43 -27.56481 153.13191 7228 ft 285 kts 198°
2026-05-04 00:44 -27.58357 153.12428 8065 ft 289 kts 199°
2026-05-04 00:44 -27.60270 153.11664 8888 ft 293 kts 199°
2026-05-04 00:44 -27.62202 153.10908 9769 ft 295 kts 199°
2026-05-04 00:44 -27.64176 153.10208 10459 ft 303 kts 198°
2026-05-04 00:45 -27.66280 153.09506 10676 ft 327 kts 197°
2026-05-04 00:45 -27.68546 153.08770 10820 ft 351 kts 197°
2026-05-04 00:45 -27.70964 153.07989 11038 ft 370 kts 197°
2026-05-04 00:45 -27.73466 153.07173 11575 ft 377 kts 198°
2026-05-04 00:46 -27.75995 153.06337 12179 ft 381 kts 198°
2026-05-04 00:46 -27.78556 153.05485 12786 ft 385 kts 198°
2026-05-04 00:46 -27.81143 153.04621 13383 ft 389 kts 199°
2026-05-04 00:46 -27.83727 153.03681 13966 ft 392 kts 202°
2026-05-04 00:47 -27.86301 153.02610 14472 ft 395 kts 204°
2026-05-04 00:47 -27.88866 153.01457 14994 ft 398 kts 205°
2026-05-04 00:47 -27.91443 153.00268 15527 ft 402 kts 205°
2026-05-04 00:47 -27.94039 152.99072 16058 ft 405 kts 205°
2026-05-04 00:48 -27.96635 152.97894 16587 ft 409 kts 205°
2026-05-04 00:48 -27.99297 152.96708 17137 ft 412 kts 205°
2026-05-04 00:48 -28.01984 152.95525 17684 ft 416 kts 205°
2026-05-04 00:48 -28.04705 152.94340 18240 ft 420 kts 204°
2026-05-04 00:49 -28.07543 152.93419 18730 ft 428 kts 195°
2026-05-04 00:49 -28.10521 152.92993 19062 ft 434 kts 185°
2026-05-04 00:49 -28.13559 152.93163 19157 ft 444 kts 176°
2026-05-04 00:49 -28.16677 152.93628 19178 ft 459 kts 175°
2026-05-04 00:50 -28.19879 152.94126 19171 ft 469 kts 175°
2026-05-04 00:50 -28.23119 152.94643 19178 ft 471 kts 175°
2026-05-04 00:50 -28.26371 152.95168 19181 ft 472 kts 175°
2026-05-04 00:50 -28.29622 152.95693 19179 ft 472 kts 175°
2026-05-04 00:51 -28.32878 152.96217 19179 ft 472 kts 175°
2026-05-04 00:51 -28.36131 152.96734 19177 ft 472 kts 175°
2026-05-04 00:51 -28.39383 152.97244 19185 ft 472 kts 175°
2026-05-04 00:51 -28.42650 152.97750 19181 ft 473 kts 175°
2026-05-04 00:52 -28.45911 152.98254 19176 ft 473 kts 175°
2026-05-04 00:52 -28.49180 152.98762 19182 ft 474 kts 175°
2026-05-04 00:52 -28.52404 152.99267 19183 ft 473 kts 175°
2026-05-04 00:52 -28.55663 152.99779 19178 ft 472 kts 175°
2026-05-04 00:53 -28.58918 153.00294 19178 ft 472 kts 175°
2026-05-04 00:53 -28.62167 153.00809 19176 ft 472 kts 175°
2026-05-04 00:53 -28.65423 153.01322 19172 ft 472 kts 175°
2026-05-04 00:53 -28.68675 153.01833 19174 ft 472 kts 175°
2026-05-04 00:54 -28.71927 153.02344 19171 ft 472 kts 175°
2026-05-04 00:54 -28.75178 153.02854 19166 ft 472 kts 175°
2026-05-04 00:54 -28.78430 153.03365 19164 ft 472 kts 175°
2026-05-04 00:54 -28.81678 153.03877 19162 ft 472 kts 175°
2026-05-04 00:55 -28.84930 153.04392 19164 ft 472 kts 175°
2026-05-04 00:55 -28.88185 153.04907 19163 ft 470 kts 175°
2026-05-04 00:55 -28.91354 153.05394 19179 ft 447 kts 175°
2026-05-04 00:55 -28.94408 153.05867 19188 ft 441 kts 175°
2026-05-04 00:56 -28.97448 153.06345 19183 ft 440 kts 175°
2026-05-04 00:56 -29.00482 153.06824 19182 ft 440 kts 175°
2026-05-04 00:56 -29.03511 153.07301 19183 ft 439 kts 175°
2026-05-04 00:56 -29.06536 153.07777 19182 ft 439 kts 175°
2026-05-04 00:57 -29.09567 153.08253 19182 ft 439 kts 175°
2026-05-04 00:57 -29.12595 153.08728 19182 ft 439 kts 175°
2026-05-04 00:57 -29.15623 153.09202 19182 ft 439 kts 175°
2026-05-04 00:57 -29.18648 153.09675 19182 ft 439 kts 175°
2026-05-04 00:58 -29.21676 153.10151 19191 ft 439 kts 176°
2026-05-04 00:58 -29.24707 153.10634 19190 ft 439 kts 176°
2026-05-04 00:58 -29.27744 153.11118 19189 ft 440 kts 175°
2026-05-04 00:58 -29.30773 153.11599 19185 ft 440 kts 176°
2026-05-04 00:59 -29.33807 153.12080 19185 ft 440 kts 176°
2026-05-04 00:59 -29.36838 153.12561 19185 ft 440 kts 176°
2026-05-04 00:59 -29.39866 153.13041 19186 ft 440 kts 176°
2026-05-04 00:59 -29.42895 153.13520 19184 ft 439 kts 176°
2026-05-04 01:00 -29.45923 153.13998 19183 ft 439 kts 176°
2026-05-04 01:00 -29.48912 153.14472 19194 ft 439 kts 176°
2026-05-04 01:00 -29.51975 153.14960 19190 ft 439 kts 176°
2026-05-04 01:00 -29.55001 153.15442 19188 ft 439 kts 176°
2026-05-04 01:01 -29.57986 153.15916 19186 ft 439 kts 176°
2026-05-04 01:01 -29.61052 153.16403 19186 ft 439 kts 176°
2026-05-04 01:01 -29.64036 153.16876 19183 ft 439 kts 176°
2026-05-04 01:01 -29.67059 153.17354 19182 ft 439 kts 176°
2026-05-04 01:02 -29.70084 153.17832 19181 ft 439 kts 176°
2026-05-04 01:02 -29.73114 153.18309 19180 ft 439 kts 176°
2026-05-04 01:02 -29.76145 153.18785 19186 ft 439 kts 176°
2026-05-04 01:02 -29.79170 153.19257 19184 ft 439 kts 176°
2026-05-04 01:03 -29.82205 153.19730 19184 ft 439 kts 176°